{"data":{"norad_id":55943,"epoch":"2026-05-25T03:14:43.338912Z","epoch_age_seconds":70216,"freshness":"FRESH","line1":"1 55943U 23037AF  26145.13522383  .00000072  00000+0  13790-4 0  9998","line2":"2 55943  69.9997  91.5959 0003115 269.4800  90.6002 14.98331469175439","mean_motion":14.98331469,"eccentricity":0.0003115,"inclination_deg":69.9997,"raan_deg":91.5959,"arg_perigee_deg":269.48,"mean_anomaly_deg":90.6002,"bstar":1.379e-5,"rev_number":17543,"period_min":96.106904900093,"perigee_km":569.88636451635,"apogee_km":574.21633185727,"semimajor_km":6950.1883481868,"source":"CELESTRAK","updated_at":"2026-05-25T13:38:17.916725Z"}}